| time (UTC) | temp C | wind direction | speed KPH | gust KPH | rain 1hr cm | rain 24hr cm | rain mn cm | humidity % | barometer mb |
| 20260503223226 | 18 | 248 | 4.8 | 6.4 | 0.25 | 8.51 | 5.26 | 28 | |
| 20260503222150 | 18 | 207 | 4.8 | 8.0 | 0.00 | 8.51 | 5.00 | 28 | |
| 20260503221052 | 19 | 134 | 4.8 | 9.7 | 0.00 | 8.74 | 5.00 | 27 | |
| 20260503220034 | 20 | 236 | 4.8 | 6.4 | 0.00 | 8.74 | 5.00 | 26 | |
| 20260503215059 | 20 | 261 | 3.2 | 4.8 | 0.00 | 8.99 | 5.00 | 26 | |
| 20260503214024 | 20 | 146 | 1.6 | 3.2 | 0.00 | 9.25 | 5.00 | 26 | |
| 20260503213055 | 21 | 250 | 3.2 | 4.8 | 0.00 | 9.25 | 5.00 | 26 | |
| 20260503212334 | 20 | 191 | 6.4 | 8.0 | 0.00 | 9.25 | 5.00 | 26 | |
| 20260503211130 | 20 | 221 | 6.4 | 8.0 | 0.00 | 9.25 | 5.00 | 26 | |
| 20260503210100 | 20 | 265 | 4.8 | 8.0 | 0.00 | 9.25 | 5.00 | 26 | |
| 20260503205032 | 20 | 208 | 6.4 | 9.7 | 0.00 | 9.50 | 5.00 | 26 | |
| 20260503204052 | 20 | 248 | 4.8 | 8.0 | 0.00 | 9.50 | 5.00 | 26 | |
| 20260503203108 | 20 | 172 | 4.8 | 6.4 | 0.00 | 9.50 | 5.00 | 26 | |
| 20260503202107 | 20 | 246 | 4.8 | 9.7 | 0.00 | 9.50 | 5.00 | 26 | |
| 20260503201037 | 20 | 206 | 4.8 | 8.0 | 0.00 | 9.50 | 5.00 | 26 | |
| 20260503200111 | 19 | 293 | 6.4 | 11.3 | 0.00 | 9.50 | 5.00 | 26 | |
| 20260503195101 | 19 | 230 | 6.4 | 9.7 | 0.00 | 9.75 | 5.00 | 27 | |
| 20260503194247 | 19 | 153 | 4.8 | 6.4 | 0.00 | 9.75 | 5.00 | 27 | |
| 20260503193043 | 19 | 148 | 4.8 | 6.4 | 0.00 | 9.75 | 5.00 | 27 | |
| 20260503192115 | 19 | 230 | 6.4 | 11.3 | 0.00 | 9.75 | 5.00 | 27 | |
| 20260503191117 | 19 | 212 | 3.2 | 6.4 | 0.25 | 9.75 | 5.00 | 27 | |
| 20260503190052 | 18 | 214 | 6.4 | 9.7 | 0.25 | 9.75 | 5.00 | 27 | |
| 20260503185159 | 18 | 238 | 3.2 | 4.8 | 0.51 | 9.75 | 5.00 | 27 | |
| 20260503184051 | 18 | 292 | 3.2 | 6.4 | 0.51 | 9.75 | 5.00 | 27 | |
| 20260503183041 | 18 | 241 | 4.8 | 9.7 | 0.51 | 9.75 | 5.00 | 27 | |
| 20260503182053 | 18 | 255 | 3.2 | 4.8 | 0.51 | 9.75 | 5.00 | 28 | |
| 20260503181023 | 18 | 265 | 3.2 | 4.8 | 0.25 | 9.50 | 4.75 | 28 | |
| 20260503180024 | 17 | 159 | 3.2 | 4.8 | 0.25 | 9.50 | 4.75 | 28 | |
| 20260503175026 | 17 | 186 | 3.2 | 6.4 | 0.00 | 9.25 | 4.50 | 28 | |
| 20260503174105 | 17 | 245 | 6.4 | 8.0 | 0.00 | 9.25 | 4.50 | 28 | |
| 20260503173030 | 17 | 249 | 4.8 | 6.4 | 0.00 | 9.25 | 4.50 | 29 | |
| 20260503172124 | 16 | 197 | 4.8 | 8.0 | 0.00 | 9.25 | 4.50 | 30 | |
| 20260503171103 | 16 | 42 | 1.6 | 4.8 | 0.25 | 9.25 | 4.50 | 29 | |
| 20260503131315 | 9 | 78 | 1.6 | 1.6 | 0.00 | 9.25 | 3.25 | 60 | |
| 20260503130109 | 8 | 287 | 0.0 | 1.6 | 0.00 | 9.25 | 3.25 | 62 | |
| 20260503100208 | 4 | 0.0 | 0.0 | 0.25 | 9.50 | 3.00 | 74 | ||
| 20260503090134 | 6 | 0.0 | 0.0 | 0.99 | 10.01 | 2.74 | 65 | ||
| 20260503080948 | 7 | 39 | 1.6 | 1.6 | 0.25 | 9.25 | 2.01 | 61 | |
| 20260503072819 | 8 | 68 | 0.0 | 1.6 | 0.25 | 9.50 | 1.75 | 60 | |
| 20260503071646 | 8 | 52 | 3.2 | 4.8 | 0.25 | 9.50 | 1.75 | 60 | |
| 20260503070750 | 8 | 58 | 1.6 | 1.6 | 0.51 | 9.75 | 1.75 | 60 | |
| 20260503054628 | 8 | 0.0 | 0.0 | 0.76 | 10.49 | 1.24 | 56 | ||
| 20260503053043 | 9 | 77 | 0.0 | 1.6 | 0.76 | 11.00 | 1.24 | 54 | |
| 20260503052044 | 9 | 351 | 1.6 | 3.2 | 0.25 | 10.49 | 0.51 | 54 | |
| 20260503051137 | 10 | 30 | 1.6 | 3.2 | 0.25 | 10.49 | 0.51 | 54 | |
| 20260503050253 | 9 | 44 | 3.2 | 3.2 | 0.25 | 11.00 | 0.51 | 55 | |
| 20260503045224 | 9 | 0.0 | 0.0 | 0.51 | 11.00 | 0.51 | 55 | ||
| 20260503044019 | 8 | 0.0 | 0.0 | 0.76 | 11.00 | 0.51 | 54 | ||
| 20260503043607 | 9 | 46 | 1.6 | 3.2 | 0.99 | 11.25 | 0.51 | 53 | |
| 20260503042042 | 9 | 39 | 1.6 | 1.6 | 0.99 | 11.00 | 0.25 | 52 | |
| 20260503041023 | 10 | 39 | 1.6 | 1.6 | 0.99 | 11.00 | 0.25 | 52 | |
| 20260503040231 | 10 | 73 | 3.2 | 3.2 | 1.24 | 11.00 | 0.25 | 51 | |
| 20260503035058 | 10 | 58 | 3.2 | 4.8 | 1.24 | 11.00 | 11.00 | 52 | |
| 20260503034028 | 10 | 65 | 3.2 | 4.8 | 0.99 | 11.00 | 10.74 | 51 | |
| 20260503033153 | 10 | 54 | 3.2 | 4.8 | 0.76 | 10.74 | 10.49 | 50 | |
| 20260503032031 | 10 | 69 | 3.2 | 3.2 | 0.51 | 10.49 | 10.26 | 50 | |
| 20260503031033 | 10 | 96 | 3.2 | 4.8 | 0.76 | 10.49 | 10.26 | 50 | |
| 20260503030034 | 11 | 65 | 1.6 | 3.2 | 0.51 | 10.26 | 10.01 | 49 | |
| 20260503025139 | 11 | 56 | 3.2 | 6.4 | 0.25 | 10.01 | 9.75 | 48 | |
| 20260503024108 | 11 | 71 | 1.6 | 4.8 | 0.25 | 10.01 | 9.75 | 48 | |
| 20260503023038 | 11 | 23 | 4.8 | 4.8 | 0.51 | 10.26 | 9.75 | 48 | |
| 20260503022112 | 11 | 36 | 3.2 | 3.2 | 0.51 | 10.26 | 9.75 | 48 | |
| 20260503021103 | 10 | 77 | 1.6 | 3.2 | 0.25 | 10.01 | 9.50 | 48 | |
| 20260503020353 | 10 | 0.0 | 0.0 | 0.25 | 10.01 | 9.50 | 48 | ||
| 20260503015045 | 10 | 57 | 1.6 | 3.2 | 0.25 | 10.01 | 9.50 | 48 | |
| 20260503014123 | 10 | 59 | 1.6 | 3.2 | 0.51 | 10.01 | 9.50 | 48 | |
| 20260503013122 | 10 | 71 | 1.6 | 1.6 | 0.25 | 9.75 | 9.25 | 47 | |
| 20260503012122 | 10 | 67 | 1.6 | 1.6 | 0.51 | 10.01 | 9.25 | 46 | |
| 20260503011019 | 11 | 62 | 1.6 | 1.6 | 0.51 | 10.01 | 9.25 | 45 | |
| 20260503010042 | 10 | 0.0 | 0.0 | 0.76 | 10.74 | 9.25 | 45 | ||
| 20260503005331 | 11 | 43 | 3.2 | 3.2 | 0.76 | 10.74 | 9.25 | 45 | |
| 20260503004139 | 11 | 65 | 1.6 | 1.6 | 0.99 | 10.49 | 8.99 | 44 | |
| 20260503003037 | 12 | 71 | 1.6 | 1.6 | 1.24 | 10.49 | 8.99 | 43 | |
| 20260503002027 | 12 | 68 | 1.6 | 3.2 | 0.99 | 10.26 | 8.74 | 41 | |
| 20260503001030 | 12 | 60 | 1.6 | 3.2 | 0.99 | 10.26 | 8.74 | 40 | |
| 20260503000050 | 12 | 71 | 1.6 | 4.8 | 0.76 | 10.01 | 8.51 | 40 | |
| 20260502235123 | 13 | 82 | 1.6 | 1.6 | 0.76 | 10.01 | 8.51 | 38 | |
| 20260502234105 | 13 | 56 | 1.6 | 4.8 | 0.25 | 9.50 | 8.00 | 36 | |
| 20260502233041 | 14 | 67 | 4.8 | 8.0 | 0.00 | 9.25 | 7.75 | 34 | |
| 20260502232037 | 14 | 55 | 6.4 | 8.0 | 0.25 | 9.25 | 7.75 | 34 | |
| 20260502231141 | 15 | 53 | 6.4 | 9.7 | 0.51 | 9.25 | 7.75 | 34 | |
| 20260502230039 | 15 | 51 | 3.2 | 8.0 | 0.51 | 9.25 | 7.75 | 33 | |
| 20260502225101 | 15 | 28 | 6.4 | 9.7 | 0.76 | 9.25 | 7.75 | 33 | |
| 20260502224116 | 15 | 70 | 3.2 | 6.4 | 0.99 | 9.25 | 7.75 | 33 |